EN

Hourly Weather Czarnowo

Today, 23 January, Saturday

Time Temperature Precipitation Wind Pressure Humidity
00:00 +2°C° 0 mm 1 mps 743 mmHg 89%
01:00 +2°C° 0 mm 1 mps 743 mmHg 89%
02:00 +2°C° 0 mm 1 mps 743 mmHg 89%
03:00 +2°C° 0 mm 1 mps 743 mmHg 88%
04:00 +2°C° 0 mm 1 mps 743 mmHg 87%
05:00 +2°C° 0 mm 1 mps 743 mmHg 87%
06:00 +1°C° 0 mm 2 mps 743 mmHg 87%
07:00 +1°C° 0 mm 2 mps 742 mmHg 87%
08:00 +1°C° 0.2 mm 3 mps 742 mmHg 88%
09:00 +1°C° 0.2 mm 3 mps 741 mmHg 88%
10:00 0°C° 0.2 mm 4 mps 741 mmHg 89%
11:00 -1°C° 1.7 mm 5 mps 740 mmHg 91%
12:00 -2°C° 1.7 mm 6 mps 740 mmHg 94%
13:00 -2°C° 1.7 mm 8 mps 739 mmHg 96%
14:00 -2°C° 1.8 mm 8 mps 739 mmHg 97%
15:00 -4°C° 1.8 mm 8 mps 739 mmHg 97%
16:00 -4°C° 1.8 mm 8 mps 738 mmHg 98%
17:00 -4°C° 1.1 mm 8 mps 738 mmHg 98%
18:00 -2°C° 1.1 mm 8 mps 739 mmHg 97%
19:00 -2°C° 1.1 mm 8 mps 739 mmHg 97%
20:00 -2°C° 0.5 mm 7 mps 739 mmHg 97%
21:00 -2°C° 0.5 mm 7 mps 739 mmHg 97%
22:00 -2°C° 0.5 mm 6 mps 740 mmHg 98%
23:00 -2°C° 0.2 mm 6 mps 740 mmHg 97%

Tomorrow, 24 January, Sunday

Time Temperature Precipitation Wind Pressure Humidity
00:00 -1°C° 0.2 mm 5 mps 741 mmHg 97%
01:00 -1°C° 0.2 mm 5 mps 741 mmHg 96%
02:00 -2°C° 0 mm 4 mps 741 mmHg 96%
03:00 -2°C° 0 mm 4 mps 741 mmHg 95%
04:00 -1°C° 0 mm 3 mps 742 mmHg 95%
05:00 -2°C° 0 mm 3 mps 742 mmHg 94%
06:00 -2°C° 0 mm 2 mps 742 mmHg 94%
07:00 0°C° 0 mm 1 mps 743 mmHg 94%
08:00 0°C° 0 mm 1 mps 743 mmHg 93%
09:00 -1°C° 0 mm 2 mps 743 mmHg 92%
10:00 -1°C° 0 mm 2 mps 744 mmHg 91%
11:00 -1°C° 0 mm 2 mps 743 mmHg 91%
12:00 +1°C° 0 mm 2 mps 743 mmHg 91%
13:00 +2°C° 0 mm 1 mps 743 mmHg 91%
14:00 +2°C° 0 mm 1 mps 743 mmHg 91%
15:00 +1°C° 0 mm 1 mps 743 mmHg 91%
16:00 +1°C° 0 mm 1 mps 743 mmHg 91%
17:00 0°C° 0 mm 1 mps 744 mmHg 91%
18:00 0°C° 0 mm 1 mps 744 mmHg 91%
19:00 0°C° 0 mm 1 mps 744 mmHg 92%
20:00 -2°C° 0.1 mm 2 mps 744 mmHg 93%
21:00 -2°C° 0.1 mm 2 mps 744 mmHg 95%
22:00 -2°C° 0.1 mm 2 mps 744 mmHg 97%
23:00 -1°C° 0.2 mm 2 mps 744 mmHg 97%

Day after tomorrow, 25 January, Monday

Time Temperature Precipitation Wind Pressure Humidity
00:00 -1°C° 0.2 mm 3 mps 744 mmHg 97%
01:00 -1°C° 0.2 mm 3 mps 745 mmHg 97%
02:00 -1°C° 0 mm 3 mps 745 mmHg 96%
03:00 -2°C° 0 mm 4 mps 745 mmHg 95%
04:00 -3°C° 0 mm 4 mps 745 mmHg 94%
05:00 -3°C° 0 mm 4 mps 745 mmHg 94%
06:00 -4°C° 0 mm 4 mps 745 mmHg 93%
07:00 -4°C° 0 mm 4 mps 746 mmHg 93%
08:00 -4°C° 0 mm 4 mps 746 mmHg 92%
09:00 -4°C° 0 mm 4 mps 747 mmHg 92%
10:00 -3°C° 0 mm 4 mps 747 mmHg 91%
11:00 -4°C° 0 mm 5 mps 747 mmHg 90%
12:00 -2°C° 0 mm 5 mps 747 mmHg 88%
13:00 -1°C° 0 mm 5 mps 747 mmHg 87%
14:00 -1°C° 0 mm 5 mps 748 mmHg 86%
15:00 -2°C° 0 mm 4 mps 748 mmHg 86%
16:00 -2°C° 0 mm 4 mps 748 mmHg 85%
17:00 -2°C° 0 mm 4 mps 749 mmHg 85%
18:00 -2°C° 0 mm 5 mps 749 mmHg 85%
19:00 -4°C° 0 mm 5 mps 749 mmHg 86%
20:00 -2°C° 0.1 mm 5 mps 750 mmHg 87%
21:00 -2°C° 0.1 mm 5 mps 750 mmHg 89%
22:00 -2°C° 0.1 mm 5 mps 750 mmHg 91%
23:00 -3°C° 0 mm 4 mps 750 mmHg 91%

26 January, Tuesday

Time Temperature Precipitation Wind Pressure Humidity
00:00 -3°C° 0 mm 4 mps 751 mmHg 91%
01:00 -4°C° 0 mm 3 mps 751 mmHg 91%
02:00 -4°C° 0 mm 3 mps 751 mmHg 91%
03:00 -4°C° 0 mm 3 mps 751 mmHg 92%
04:00 -4°C° 0 mm 3 mps 751 mmHg 92%
05:00 -4°C° 0 mm 3 mps 751 mmHg 92%
06:00 -4°C° 0 mm 3 mps 752 mmHg 92%
07:00 -4°C° 0 mm 3 mps 752 mmHg 93%
08:00 -4°C° 0 mm 4 mps 752 mmHg 91%
09:00 -3°C° 0 mm 4 mps 752 mmHg 90%
10:00 -4°C° 0 mm 5 mps 753 mmHg 88%
11:00 -2°C° 0 mm 5 mps 753 mmHg 87%
12:00 -2°C° 0 mm 5 mps 753 mmHg 85%
13:00 -1°C° 0 mm 5 mps 753 mmHg 84%
14:00 -1°C° 0 mm 4 mps 753 mmHg 85%
15:00 -2°C° 0 mm 4 mps 753 mmHg 85%
16:00 -1°C° 0 mm 3 mps 753 mmHg 86%
17:00 -2°C° 0 mm 3 mps 754 mmHg 87%
18:00 -3°C° 0 mm 4 mps 754 mmHg 88%
19:00 -4°C° 0 mm 4 mps 754 mmHg 89%
20:00 -4°C° 0 mm 4 mps 753 mmHg 89%
21:00 -3°C° 0 mm 4 mps 753 mmHg 90%
22:00 -3°C° 0 mm 4 mps 753 mmHg 91%
23:00 -2°C° 0 mm 4 mps 753 mmHg 92%

27 January, Wednesday

Time Temperature Precipitation Wind Pressure Humidity
00:00 -2°C° 0 mm 4 mps 752 mmHg 93%
01:00 -2°C° 0 mm 4 mps 752 mmHg 94%
02:00 -2°C° 0 mm 4 mps 752 mmHg 94%
03:00 -2°C° 0 mm 3 mps 751 mmHg 94%
04:00 -2°C° 0 mm 3 mps 751 mmHg 94%
05:00 -2°C° 0 mm 2 mps 750 mmHg 95%
06:00 -2°C° 0 mm 2 mps 750 mmHg 95%
07:00 -3°C° 0 mm 2 mps 750 mmHg 95%
08:00 -2°C° 0 mm 2 mps 750 mmHg 94%
09:00 -2°C° 0 mm 2 mps 750 mmHg 93%
10:00 +1°C° 0 mm 1 mps 750 mmHg 92%
11:00 +1°C° 0 mm 1 mps 751 mmHg 91%
12:00 +2°C° 0 mm 1 mps 751 mmHg 91%
13:00 +2°C° 0 mm 1 mps 751 mmHg 90%
14:00 +2°C° 0 mm 1 mps 751 mmHg 91%
15:00 +1°C° 0 mm 1 mps 752 mmHg 92%
16:00 +1°C° 0 mm 1 mps 752 mmHg 93%
17:00 -1°C° 0 mm 2 mps 753 mmHg 93%
18:00 -2°C° 0 mm 2 mps 753 mmHg 93%
19:00 -2°C° 0 mm 2 mps 754 mmHg 93%
20:00 -2°C° 0 mm 3 mps 754 mmHg 92%
21:00 -1°C° 0 mm 3 mps 754 mmHg 91%
22:00 -1°C° 0 mm 3 mps 755 mmHg 90%
23:00 -1°C° 0 mm 3 mps 755 mmHg 91%

28 January, Thursday

Time Temperature Precipitation Wind Pressure Humidity
00:00 -1°C° 0 mm 3 mps 755 mmHg 91%
01:00 -1°C° 0 mm 2 mps 755 mmHg 92%
02:00 -1°C° 0 mm 2 mps 754 mmHg 93%
03:00 -1°C° 0 mm 2 mps 754 mmHg 94%
04:00 -1°C° 0 mm 2 mps 754 mmHg 94%
05:00 -1°C° 0 mm 2 mps 754 mmHg 95%
06:00 -2°C° 0 mm 2 mps 753 mmHg 96%
07:00 -2°C° 0 mm 2 mps 753 mmHg 97%
08:00 -1°C° 0.1 mm 2 mps 752 mmHg 97%
09:00 -1°C° 0.1 mm 3 mps 752 mmHg 97%
10:00 -1°C° 0.1 mm 3 mps 751 mmHg 97%
11:00 0°C° 0.2 mm 3 mps 751 mmHg 97%
12:00 0°C° 0.2 mm 3 mps 750 mmHg 98%
13:00 0°C° 0.2 mm 3 mps 750 mmHg 98%
14:00 0°C° 0.4 mm 3 mps 749 mmHg 98%
15:00 0°C° 0.4 mm 3 mps 749 mmHg 98%
16:00 0°C° 0.4 mm 4 mps 748 mmHg 98%
17:00 0°C° 0.4 mm 4 mps 748 mmHg 98%
18:00 +1°C° 0.4 mm 3 mps 749 mmHg 98%
19:00 +1°C° 0.4 mm 3 mps 749 mmHg 98%
Show more

We Need Your Consent

Meteoprog and our Service Providers may store and access personal data such as cookies, device identifiers or other similar technologies on your device and process such data to personalise content and ads, as well as provide social media features and to analyse the traffic.

  • Store and/or access information on your device

    Cookies, device identifiers or other information can be stored or accessed on your device for the purposes indicated above.

  • Personalised ads and content, ad and content measurement, audience insights, and products development

    Ads and content can be personalised based on a profile. More data can be added to better personalise ads and content. Ad and content performance can be measured. Insights about the audience who saw the ads and content can be derived. Such data can be used to develop or improve user’s experience, systems and software.

By clicking ‘I Agree’ you will allow the use of indicated cookies, device identifiers, web beacons or other similar technologies. Your settings can be changed in the browser on your device.

For certain purposes, legitimate interests may be relied on, rather than consent. You can read more about this in our Privacy and Cookie Policy.